Location: Antioch Baptist Church
(32.6696°N, 85.7327°W)
Time: 00:33:18
(UTC+00:00)

Cosmos 2058 - Pass Details

Date: 14 July 2020
Orbit: 562 x 584 km, 82.5° (Epoch: 12 August)

Event Time Altitude Azimuth Distance (km) Brightness Sun altitude
Exits shadow 02:33:46 36° 94° (E) 920 3.5 -18.5°
Maximum altitude 02:33:50 36° 92° (E) 920 3.5 -18.5°
Drops below altitude 10° 02:37:37 10° 25° (NNE) 1,873 5.7 -19.1°
Sets 02:39:54 0° 17° (NNE) 2,770 6.8 -19.4°
